一网星座-0616星 (ONEWEB-0616)

导读 | 豆包AI

ONEWEB-0616是英国一网(OneWeb)星座下的低轨通信卫星,于2023年1月10日由SpaceX猎鹰9号火箭在卡纳维拉尔角发射升空,同批次共发射40颗OneWeb卫星。卫星单颗重约148公斤,依靠太阳能供电,最终运行于1200公里近地轨道,为OneWeb全球高速星座网络提供服务,支撑覆盖全球的天基互联网接入业务。

基本信息
目录编号:
55157
目录名称:
ONEWEB-0616
国际标识:
2023-004T
轨道中心:
EARTH
卫星名称:
一网星座-0616星
卫星全名:
一网星座-0616星 (ONEWEB-0616)
卫星状态:
在轨 (已飞行1208 天)
发射日期:
2023-01-10 UTC
国别 :
英国 (GB)
星等 :
--
轨道信息
数据来源 国际轨道数据
星历时间: 2026-05-02T11:01:02+0800
6小时前
查看轨道信息
半长轴: 7571.851km
偏心率: 0.0002634
轨道倾角: 87.918°
近地点辐角 68.826°
升交点赤经 15.021°
平近点角 291.315°
近地点: 1191.719km
远地点: 1195.709km
周期: 109.286分钟
每日圈数: 13.17649
详细信息
平衡模式:
三轴稳定
覆盖范围:
全球
运营商:
一网卫星公司
运营商所在国:
英国
制造商(研发单位):
一网卫星公司
制造商所在国:
英国
使用方式:
暂无
卫星简介
OneWeb卫星网络由648颗重约125公斤的微型卫星组成,运行在1200公里的轨道上。 每颗卫星都能够提供至少每秒8千兆位的吞吐量,以使用其高吞吐量的Ku频段有效载荷为家庭和移动平台提供互联网接入。该卫星仍在工作。
2D轨道图
3D轨道图
轨道高度分析图
轨道倾角分析图
轨道综合分析图
查看轨道综合分析图